| time (UTC) | temp F | wind direction | speed knots | gust knots | rain 1hr in | rain 24hr in | rain mn in | humidity % | barometer mb |
| 20260510180059 | 68 | 201 | 2.6 | 6.1 | 0.00 | 0.27 | 0.00 | 59 | 1011.9 |
| 20260510175524 | 69 | 292 | 3.5 | 6.1 | 0.00 | 0.27 | 0.00 | 58 | 1011.8 |
| 20260510175026 | 69 | 294 | 0.9 | 3.5 | 0.00 | 0.27 | 0.00 | 60 | 1011.8 |
| 20260510174541 | 68 | 309 | 1.7 | 6.1 | 0.00 | 0.27 | 0.00 | 61 | 1011.7 |
| 20260510174025 | 68 | 309 | 2.6 | 7.0 | 0.00 | 0.27 | 0.00 | 61 | 1011.8 |
| 20260510173528 | 68 | 279 | 1.7 | 7.0 | 0.00 | 0.27 | 0.00 | 60 | 1011.7 |
| 20260510173045 | 69 | 299 | 3.5 | 7.0 | 0.00 | 0.27 | 0.00 | 59 | 1012.1 |
| 20260510172527 | 68 | 9 | 1.7 | 6.1 | 0.00 | 0.27 | 0.00 | 61 | 1012.0 |
| 20260510172025 | 67 | 94 | 0.9 | 7.0 | 0.00 | 0.27 | 0.00 | 63 | 1012.0 |
| 20260510171552 | 68 | 270 | 2.6 | 7.0 | 0.00 | 0.27 | 0.00 | 62 | 1011.9 |
| 20260510171024 | 68 | 259 | 1.7 | 6.1 | 0.00 | 0.27 | 0.00 | 65 | 1011.8 |
| 20260510170529 | 67 | 343 | 1.7 | 6.1 | 0.00 | 0.27 | 0.00 | 66 | 1011.7 |
| 20260510170047 | 66 | 66 | 0.9 | 3.5 | 0.00 | 0.27 | 0.00 | 66 | 1011.7 |
| 20260510165524 | 66 | 241 | 1.7 | 3.5 | 0.00 | 0.27 | 0.00 | 67 | 1011.8 |
| 20260510165026 | 66 | 306 | 1.7 | 3.5 | 0.00 | 0.27 | 0.00 | 66 | 1011.7 |
| 20260510164553 | 66 | 325 | 1.7 | 2.6 | 0.00 | 0.27 | 0.00 | 69 | 1011.8 |
| 20260510164025 | 65 | 259 | 0.9 | 5.2 | 0.00 | 0.27 | 0.00 | 69 | 1012.0 |
| 20260510163525 | 66 | 28 | 0.0 | 5.2 | 0.00 | 0.27 | 0.00 | 69 | 1012.1 |
| 20260510163057 | 66 | 270 | 1.7 | 5.2 | 0.00 | 0.27 | 0.00 | 70 | 1012.1 |
| 20260510162525 | 66 | 205 | 0.9 | 3.5 | 0.00 | 0.27 | 0.00 | 68 | 1012.0 |
| 20260510162028 | 66 | 320 | 1.7 | 3.5 | 0.00 | 0.27 | 0.00 | 69 | 1011.9 |
| 20260510161545 | 66 | 113 | 0.9 | 6.1 | 0.00 | 0.27 | 0.00 | 69 | 1012.0 |
| 20260510161025 | 66 | 274 | 1.7 | 6.1 | 0.00 | 0.27 | 0.00 | 69 | 1012.1 |
| 20260510160524 | 67 | 286 | 1.7 | 4.3 | 0.00 | 0.27 | 0.00 | 68 | 1012.1 |
| 20260510160044 | 66 | 324 | 0.9 | 3.5 | 0.00 | 0.27 | 0.00 | 70 | 1012.1 |
| 20260510155524 | 66 | 165 | 1.7 | 3.5 | 0.00 | 0.27 | 0.00 | 72 | 1012.1 |
| 20260510155024 | 66 | 321 | 0.9 | 3.5 | 0.00 | 0.27 | 0.00 | 72 | 1011.9 |
| 20260510154542 | 65 | 263 | 0.9 | 3.5 | 0.00 | 0.27 | 0.00 | 68 | 1012.0 |
| 20260510154025 | 65 | 63 | 1.7 | 4.3 | 0.00 | 0.27 | 0.00 | 70 | 1012.0 |
| 20260510153524 | 64 | 143 | 0.9 | 4.3 | 0.00 | 0.27 | 0.00 | 75 | 1012.1 |
| 20260510153057 | 65 | 284 | 1.7 | 3.5 | 0.00 | 0.27 | 0.00 | 69 | 1012.1 |
| 20260510152525 | 65 | 304 | 0.9 | 2.6 | 0.00 | 0.27 | 0.00 | 71 | 1012.3 |
| 20260510152025 | 64 | 149 | 0.9 | 2.6 | 0.00 | 0.27 | 0.00 | 76 | 1012.2 |
| 20260510151539 | 64 | 224 | 0.9 | 2.6 | 0.00 | 0.27 | 0.00 | 75 | 1012.3 |
| 20260510151026 | 64 | 294 | 0.9 | 2.6 | 0.00 | 0.27 | 0.00 | 76 | 1012.3 |
| 20260510150526 | 64 | 109 | 0.0 | 2.6 | 0.00 | 0.27 | 0.00 | 78 | 1012.2 |
| 20260510150053 | 63 | 131 | 0.9 | 2.6 | 0.00 | 0.27 | 0.00 | 75 | 1012.1 |
| 20260510145524 | 63 | 101 | 0.9 | 2.6 | 0.00 | 0.27 | 0.00 | 76 | 1012.2 |
| 20260510145024 | 62 | 117 | 0.0 | 2.6 | 0.00 | 0.27 | 0.00 | 77 | 1012.3 |
| 20260510144546 | 62 | 279 | 0.9 | 2.6 | 0.00 | 0.27 | 0.00 | 78 | 1012.2 |
| 20260510144028 | 63 | 309 | 0.9 | 2.6 | 0.00 | 0.27 | 0.00 | 78 | 1012.3 |
| 20260510143525 | 62 | 310 | 0.0 | 1.7 | 0.00 | 0.27 | 0.00 | 79 | 1012.1 |
| 20260510143056 | 62 | 299 | 0.0 | 1.7 | 0.00 | 0.27 | 0.00 | 80 | 1012.1 |
| 20260510142528 | 61 | 346 | 0.0 | 1.7 | 0.00 | 0.27 | 0.00 | 83 | 1012.1 |
| 20260510142024 | 60 | 263 | 0.9 | 1.7 | 0.00 | 0.27 | 0.00 | 82 | 1012.0 |
| 20260510141541 | 60 | 26 | 0.0 | 2.6 | 0.00 | 0.27 | 0.00 | 88 | 1011.9 |
| 20260510141025 | 59 | 215 | 0.9 | 2.6 | 0.00 | 0.27 | 0.00 | 86 | 1012.1 |
| 20260510140525 | 58 | 80 | 0.9 | 2.6 | 0.00 | 0.27 | 0.00 | 87 | 1012.1 |
| 20260510140039 | 57 | 95 | 0.9 | 1.7 | 0.00 | 0.27 | 0.00 | 90 | 1012.2 |
| 20260510135528 | 57 | 69 | 0.9 | 2.6 | 0.00 | 0.28 | 0.00 | 90 | 1012.2 |
| 20260510135027 | 56 | 0 | 0.0 | 2.6 | 0.00 | 0.28 | 0.00 | 92 | 1012.2 |
| 20260510134543 | 55 | 0 | 0.9 | 1.7 | 0.00 | 0.28 | 0.00 | 90 | 1012.3 |
| 20260510134024 | 55 | 302 | 0.9 | 1.7 | 0.00 | 0.28 | 0.00 | 92 | 1012.2 |
| 20260510133525 | 55 | 0 | 0.0 | 1.7 | 0.00 | 0.28 | 0.00 | 93 | 1012.2 |
| 20260510133045 | 54 | 317 | 0.0 | 1.7 | 0.00 | 0.28 | 0.00 | 94 | 1012.2 |
| 20260510132524 | 54 | 280 | 0.0 | 1.7 | 0.00 | 0.28 | 0.00 | 94 | 1012.1 |
| 20260510132026 | 54 | 126 | 0.0 | 1.7 | 0.00 | 0.28 | 0.00 | 95 | 1012.0 |
| 20260510131551 | 53 | 119 | 0.0 | 1.7 | 0.00 | 0.28 | 0.00 | 95 | 1012.0 |
| 20260510131024 | 53 | 0 | 0.0 | 1.7 | 0.00 | 0.28 | 0.00 | 95 | 1012.1 |
| 20260510130524 | 53 | 5 | 0.0 | 1.7 | 0.00 | 0.28 | 0.00 | 95 | 1012.0 |
| 20260510130042 | 53 | 333 | 0.0 | 1.7 | 0.00 | 0.28 | 0.00 | 95 | 1012.1 |
| 20260510125524 | 53 | 331 | 0.0 | 1.7 | 0.00 | 0.28 | 0.00 | 95 | 1012.1 |
| 20260510125024 | 52 | 323 | 0.0 | 1.7 | 0.00 | 0.28 | 0.00 | 95 | 1012.1 |
| 20260510124542 | 52 | 0 | 0.0 | 1.7 | 0.00 | 0.28 | 0.00 | 95 | 1012.0 |
| 20260510124029 | 52 | 323 | 0.0 | 1.7 | 0.00 | 0.28 | 0.00 | 95 | 1012.1 |
| 20260510123526 | 52 | 321 | 0.0 | 1.7 | 0.00 | 0.28 | 0.00 | 95 | 1012.0 |
| 20260510123045 | 52 | 0 | 0.0 | 1.7 | 0.00 | 0.28 | 0.00 | 95 | 1012.0 |
| 20260510122524 | 52 | 0 | 0.0 | 0.0 | 0.00 | 0.28 | 0.00 | 95 | 1011.8 |
| 20260510122024 | 52 | 0 | 0.0 | 1.7 | 0.00 | 0.28 | 0.00 | 96 | 1011.8 |
| 20260510121545 | 52 | 0 | 0.0 | 1.7 | 0.00 | 0.28 | 0.00 | 96 | 1011.7 |
| 20260510121026 | 52 | 0 | 0.0 | 1.7 | 0.00 | 0.28 | 0.00 | 96 | 1011.7 |
| 20260510120524 | 52 | 0 | 0.0 | 1.7 | 0.00 | 0.28 | 0.00 | 96 | 1011.6 |
| 20260510120043 | 52 | 0 | 0.0 | 1.7 | 0.00 | 0.28 | 0.00 | 96 | 1011.7 |
| 20260510115524 | 52 | 0 | 0.0 | 1.7 | 0.00 | 0.28 | 0.00 | 96 | 1011.7 |
| 20260510115024 | 52 | 94 | 0.0 | 1.7 | 0.00 | 0.28 | 0.00 | 96 | 1011.6 |
| 20260510114543 | 52 | 118 | 0.0 | 1.7 | 0.00 | 0.28 | 0.00 | 96 | 1011.5 |
| 20260510114026 | 51 | 118 | 0.0 | 1.7 | 0.00 | 0.28 | 0.00 | 96 | 1011.5 |
| 20260510113525 | 51 | 0 | 0.0 | 1.7 | 0.00 | 0.28 | 0.00 | 96 | 1011.5 |
| 20260510113039 | 51 | 0 | 0.0 | 1.7 | 0.00 | 0.28 | 0.00 | 96 | 1011.4 |
| 20260510112528 | 51 | 0 | 0.0 | 1.7 | 0.00 | 0.28 | 0.00 | 96 | 1011.4 |
| 20260510112026 | 51 | 5 | 0.0 | 1.7 | 0.00 | 0.28 | 0.00 | 96 | 1011.4 |
| 20260510111536 | 51 | 0 | 0.0 | 1.7 | 0.00 | 0.28 | 0.00 | 96 | 1011.4 |
| 20260510111024 | 51 | 0 | 0.0 | 1.7 | 0.00 | 0.28 | 0.00 | 96 | 1011.3 |
| 20260510110524 | 51 | 88 | 0.0 | 1.7 | 0.00 | 0.28 | 0.00 | 96 | 1011.2 |
| 20260510110037 | 51 | 88 | 0.0 | 1.7 | 0.00 | 0.28 | 0.00 | 96 | 1011.1 |
| 20260510105525 | 50 | 88 | 0.0 | 1.7 | 0.00 | 0.28 | 0.00 | 96 | 1011.2 |
| 20260510105026 | 50 | 0 | 0.0 | 0.9 | 0.00 | 0.28 | 0.00 | 96 | 1011.4 |
| 20260510104548 | 50 | 0 | 0.0 | 0.9 | 0.00 | 0.28 | 0.00 | 96 | 1011.3 |
| 20260510104026 | 50 | 0 | 0.0 | 1.7 | 0.00 | 0.28 | 0.00 | 96 | 1011.4 |
| 20260510103524 | 50 | 0 | 0.0 | 1.7 | 0.00 | 0.28 | 0.00 | 96 | 1011.2 |
| 20260510103042 | 50 | 87 | 0.0 | 1.7 | 0.00 | 0.28 | 0.00 | 96 | 1011.1 |
| 20260510102525 | 50 | 0 | 0.0 | 1.7 | 0.00 | 0.28 | 0.00 | 96 | 1011.1 |
| 20260510102025 | 50 | 132 | 0.0 | 1.7 | 0.00 | 0.28 | 0.00 | 96 | 1011.0 |
| 20260510101542 | 50 | 140 | 0.0 | 1.7 | 0.00 | 0.28 | 0.00 | 96 | 1011.3 |
| 20260510101025 | 50 | 0 | 0.0 | 1.7 | 0.00 | 0.28 | 0.00 | 96 | 1011.1 |
| 20260510100530 | 50 | 0 | 0.0 | 1.7 | 0.00 | 0.28 | 0.00 | 96 | 1011.0 |
| 20260510095524 | 50 | 0 | 0.0 | 1.7 | 0.00 | 0.28 | 0.00 | 96 | 1011.0 |
| 20260510095029 | 50 | 0 | 0.0 | 1.7 | 0.00 | 0.28 | 0.00 | 96 | 1011.0 |
| 20260510094550 | 50 | 113 | 0.0 | 1.7 | 0.00 | 0.28 | 0.00 | 96 | 1010.9 |
| 20260510094024 | 50 | 0 | 0.0 | 5.2 | 0.00 | 0.28 | 0.00 | 96 | 1010.7 |
| 20260510093522 | 50 | 114 | 0.9 | 5.2 | 0.00 | 0.28 | 0.00 | 96 | 1010.8 |
| 20260510093041 | 50 | 60 | 0.0 | 1.7 | 0.00 | 0.28 | 0.00 | 96 | 1010.8 |
| 20260510092525 | 50 | 242 | 0.0 | 1.7 | 0.00 | 0.28 | 0.00 | 96 | 1010.7 |
| 20260510092025 | 50 | 104 | 0.0 | 1.7 | 0.00 | 0.28 | 0.00 | 96 | 1010.8 |
| 20260510091542 | 50 | 103 | 0.0 | 1.7 | 0.00 | 0.28 | 0.00 | 96 | 1010.8 |
| 20260510091026 | 50 | 104 | 0.0 | 1.7 | 0.00 | 0.28 | 0.00 | 96 | 1011.0 |
| 20260510090525 | 50 | 115 | 0.0 | 1.7 | 0.00 | 0.28 | 0.00 | 96 | 1010.9 |
| 20260510090047 | 50 | 178 | 0.0 | 1.7 | 0.00 | 0.28 | 0.00 | 96 | 1011.0 |
| 20260510085524 | 50 | 135 | 0.0 | 1.7 | 0.00 | 0.29 | 0.00 | 96 | 1011.0 |
| 20260510085027 | 50 | 136 | 0.0 | 1.7 | 0.00 | 0.29 | 0.00 | 96 | 1010.9 |
| 20260510084554 | 50 | 107 | 0.0 | 1.7 | 0.00 | 0.29 | 0.00 | 96 | 1011.0 |
| 20260510084028 | 50 | 0 | 0.0 | 1.7 | 0.00 | 0.29 | 0.00 | 96 | 1010.9 |
| 20260510083525 | 50 | 107 | 0.0 | 1.7 | 0.00 | 0.29 | 0.00 | 96 | 1010.9 |
| 20260510083042 | 50 | 113 | 0.9 | 1.7 | 0.00 | 0.29 | 0.00 | 96 | 1011.0 |
| 20260510082524 | 50 | 96 | 0.9 | 1.7 | 0.00 | 0.29 | 0.00 | 96 | 1011.1 |
| 20260510082024 | 50 | 96 | 0.0 | 1.7 | 0.00 | 0.29 | 0.00 | 96 | 1011.2 |
| 20260510081551 | 50 | 96 | 0.0 | 1.7 | 0.00 | 0.29 | 0.00 | 96 | 1011.1 |
| 20260510081024 | 50 | 92 | 0.0 | 0.9 | 0.00 | 0.29 | 0.00 | 96 | 1011.1 |
| 20260510080526 | 50 | 0 | 0.0 | 1.7 | 0.00 | 0.29 | 0.00 | 96 | 1011.3 |
| 20260510080040 | 50 | 0 | 0.0 | 1.7 | 0.00 | 0.29 | 0.00 | 96 | 1011.2 |
| 20260510075525 | 50 | 0 | 0.0 | 0.9 | 0.00 | 0.30 | 0.00 | 96 | 1011.3 |
| 20260510075024 | 50 | 83 | 0.9 | 0.9 | 0.00 | 0.30 | 0.00 | 96 | 1011.1 |
| 20260510074545 | 50 | 61 | 0.9 | 1.7 | 0.00 | 0.30 | 0.00 | 96 | 1011.3 |
| 20260510074025 | 50 | 61 | 0.0 | 1.7 | 0.00 | 0.30 | 0.00 | 96 | 1011.2 |
| 20260510073523 | 50 | 61 | 0.9 | 1.7 | 0.00 | 0.30 | 0.00 | 96 | 1011.4 |
| 20260510073039 | 50 | 0 | 0.0 | 1.7 | 0.00 | 0.30 | 0.00 | 96 | 1011.3 |
| 20260510072526 | 50 | 52 | 0.0 | 1.7 | 0.00 | 0.30 | 0.00 | 96 | 1011.3 |
| 20260510072027 | 50 | 0 | 0.0 | 1.7 | 0.00 | 0.30 | 0.00 | 96 | 1011.1 |
| 20260510071546 | 50 | 57 | 0.0 | 1.7 | 0.00 | 0.30 | 0.00 | 96 | 1010.8 |
| 20260510071024 | 50 | 57 | 0.0 | 1.7 | 0.00 | 0.30 | 0.00 | 96 | 1010.8 |
| 20260510070526 | 50 | 0 | 0.0 | 1.7 | 0.00 | 0.30 | 0.00 | 96 | 1010.8 |
| 20260510070040 | 50 | 0 | 0.0 | 1.7 | 0.00 | 0.30 | 0.00 | 96 | 1010.8 |
| 20260510065524 | 50 | 51 | 0.0 | 1.7 | 0.00 | 0.30 | 0.00 | 96 | 1010.7 |
| 20260510065025 | 50 | 46 | 0.0 | 1.7 | 0.00 | 0.30 | 0.00 | 96 | 1010.8 |
| 20260510064540 | 50 | 46 | 0.0 | 1.7 | 0.00 | 0.30 | 0.00 | 96 | 1010.9 |
| 20260510064024 | 50 | 46 | 0.0 | 1.7 | 0.00 | 0.30 | 0.00 | 96 | 1010.9 |
| 20260510063525 | 50 | 0 | 0.0 | 1.7 | 0.00 | 0.30 | 0.00 | 96 | 1010.9 |
| 20260510063037 | 50 | 46 | 0.0 | 1.7 | 0.00 | 0.30 | 0.00 | 96 | 1010.9 |
| 20260510062525 | 50 | 0 | 0.0 | 1.7 | 0.00 | 0.30 | 0.00 | 96 | 1011.1 |
| 20260510062026 | 50 | 46 | 0.0 | 1.7 | 0.00 | 0.30 | 0.00 | 96 | 1011.0 |
| 20260510061539 | 50 | 46 | 0.0 | 1.7 | 0.00 | 0.30 | 0.00 | 95 | 1011.1 |
| 20260510061028 | 50 | 0 | 0.0 | 0.0 | 0.00 | 0.30 | 0.00 | 95 | 1011.0 |
| 20260510060526 | 50 | 0 | 0.0 | 1.7 | 0.00 | 0.30 | 0.00 | 96 | 1010.9 |
| 20260510060035 | 50 | 0 | 0.0 | 1.7 | 0.00 | 0.30 | 0.00 | 95 | 1010.8 |
| 20260510055524 | 50 | 0 | 0.0 | 1.7 | 0.00 | 0.30 | 0.00 | 95 | 1010.8 |
| 20260510055024 | 50 | 0 | 0.0 | 1.7 | 0.00 | 0.30 | 0.00 | 95 | 1010.8 |
| 20260510054536 | 50 | 74 | 0.0 | 1.7 | 0.00 | 0.30 | 0.00 | 95 | 1010.7 |
| 20260510054025 | 50 | 75 | 0.0 | 1.7 | 0.00 | 0.30 | 0.00 | 95 | 1010.8 |
| 20260510053524 | 50 | 72 | 0.0 | 1.7 | 0.00 | 0.30 | 0.00 | 95 | 1010.7 |
| 20260510053041 | 50 | 74 | 0.0 | 1.7 | 0.00 | 0.30 | 0.00 | 95 | 1010.7 |
| 20260510052525 | 50 | 75 | 0.0 | 1.7 | 0.00 | 0.30 | 0.00 | 96 | 1010.8 |
| 20260510052025 | 50 | 77 | 0.0 | 1.7 | 0.00 | 0.30 | 0.00 | 96 | 1010.8 |
| 20260510051545 | 50 | 0 | 0.0 | 1.7 | 0.00 | 0.30 | 0.00 | 96 | 1010.8 |
| 20260510051024 | 50 | 69 | 0.0 | 1.7 | 0.00 | 0.30 | 0.00 | 96 | 1010.9 |
| 20260510050525 | 50 | 67 | 0.0 | 1.7 | 0.00 | 0.30 | 0.00 | 95 | 1010.9 |
| 20260510050041 | 50 | 67 | 0.0 | 0.9 | 0.00 | 0.30 | 0.00 | 95 | 1010.7 |
| 20260510045524 | 50 | 67 | 0.0 | 1.7 | 0.00 | 0.30 | 0.00 | 95 | 1010.7 |
| 20260510045024 | 51 | 54 | 0.0 | 1.7 | 0.00 | 0.30 | 0.00 | 95 | 1010.7 |
| 20260510044546 | 51 | 71 | 0.0 | 1.7 | 0.00 | 0.30 | 0.00 | 95 | 1010.8 |
| 20260510044024 | 51 | 0 | 0.0 | 1.7 | 0.00 | 0.30 | 0.00 | 95 | 1010.8 |
| 20260510043524 | 51 | 59 | 0.0 | 1.7 | 0.00 | 0.30 | 0.00 | 95 | 1010.9 |
| 20260510043048 | 51 | 31 | 0.0 | 1.7 | 0.00 | 0.30 | 0.00 | 96 | 1010.8 |
| 20260510042524 | 51 | 0 | 0.0 | 1.7 | 0.00 | 0.30 | 0.00 | 96 | 1010.9 |
| 20260510042025 | 51 | 10 | 0.0 | 0.0 | 0.00 | 0.30 | 0.00 | 96 | 1010.7 |
| 20260510041539 | 51 | 0 | 0.0 | 0.0 | 0.00 | 0.30 | 0.00 | 96 | 1010.7 |
| 20260510041024 | 51 | 0 | 0.0 | 0.0 | 0.00 | 0.30 | 0.00 | 96 | 1010.6 |
| 20260510040525 | 51 | 0 | 0.0 | 0.9 | 0.00 | 0.30 | 0.00 | 96 | 1010.6 |
| 20260510040045 | 51 | 0 | 0.0 | 1.7 | 0.00 | 0.30 | 0.00 | 96 | 1010.6 |
| 20260510035524 | 51 | 0 | 0.0 | 1.7 | 0.00 | 0.30 | 0.30 | 96 | 1010.6 |
| 20260510035025 | 51 | 96 | 0.0 | 0.0 | 0.00 | 0.30 | 0.30 | 96 | 1010.6 |
| 20260510034542 | 51 | 0 | 0.0 | 1.7 | 0.00 | 0.30 | 0.30 | 96 | 1010.6 |
| 20260510034026 | 51 | 0 | 0.0 | 1.7 | 0.00 | 0.30 | 0.30 | 96 | 1010.5 |
| 20260510033524 | 51 | 96 | 0.0 | 1.7 | 0.00 | 0.30 | 0.30 | 95 | 1010.5 |
| 20260510033100 | 51 | 0 | 0.0 | 1.7 | 0.00 | 0.30 | 0.30 | 96 | 1010.4 |
| 20260510032524 | 51 | 96 | 0.0 | 1.7 | 0.00 | 0.30 | 0.30 | 95 | 1010.6 |
| 20260510032025 | 51 | 0 | 0.0 | 1.7 | 0.00 | 0.30 | 0.30 | 96 | 1010.7 |
| 20260510031547 | 51 | 96 | 0.0 | 1.7 | 0.00 | 0.30 | 0.30 | 96 | 1010.7 |
| 20260510031025 | 51 | 0 | 0.0 | 0.9 | 0.00 | 0.30 | 0.30 | 96 | 1010.8 |
| 20260510030524 | 51 | 0 | 0.0 | 0.0 | 0.00 | 0.30 | 0.30 | 96 | 1010.9 |
| 20260510030045 | 51 | 0 | 0.0 | 0.0 | 0.00 | 0.30 | 0.30 | 96 | 1010.9 |
| 20260510025527 | 51 | 0 | 0.0 | 1.7 | 0.00 | 0.30 | 0.30 | 96 | 1010.9 |
| 20260510025024 | 51 | 0 | 0.0 | 1.7 | 0.00 | 0.30 | 0.30 | 95 | 1010.8 |
| 20260510024540 | 52 | 0 | 0.0 | 1.7 | 0.00 | 0.30 | 0.30 | 96 | 1010.7 |
| 20260510024024 | 51 | 0 | 0.0 | 0.0 | 0.00 | 0.30 | 0.30 | 95 | 1010.7 |
| 20260510023526 | 52 | 0 | 0.0 | 0.0 | 0.00 | 0.30 | 0.30 | 95 | 1010.9 |
| 20260510023036 | 51 | 0 | 0.0 | 0.0 | 0.00 | 0.30 | 0.30 | 95 | 1010.8 |
| 20260510022525 | 51 | 0 | 0.0 | 0.0 | 0.00 | 0.30 | 0.30 | 95 | 1010.8 |
| 20260510022025 | 51 | 0 | 0.0 | 1.7 | 0.00 | 0.30 | 0.30 | 95 | 1010.7 |
| 20260510021536 | 51 | 0 | 0.0 | 1.7 | 0.00 | 0.30 | 0.30 | 95 | 1010.7 |
| 20260510021024 | 52 | 96 | 0.0 | 1.7 | 0.00 | 0.30 | 0.30 | 95 | 1010.7 |
| 20260510020527 | 52 | 0 | 0.0 | 1.7 | 0.00 | 0.30 | 0.30 | 95 | 1010.6 |
| 20260510020047 | 52 | 96 | 0.0 | 1.7 | 0.00 | 0.30 | 0.30 | 95 | 1010.6 |
| 20260510015525 | 52 | 96 | 0.0 | 1.7 | 0.00 | 0.30 | 0.30 | 95 | 1010.7 |
| 20260510015024 | 52 | 0 | 0.0 | 1.7 | 0.00 | 0.30 | 0.30 | 95 | 1010.6 |
| 20260510014546 | 52 | 0 | 0.0 | 0.9 | 0.00 | 0.30 | 0.30 | 95 | 1010.4 |
| 20260510014024 | 52 | 0 | 0.0 | 0.9 | 0.00 | 0.30 | 0.30 | 95 | 1010.4 |
| 20260510013524 | 52 | 0 | 0.0 | 0.0 | 0.00 | 0.30 | 0.30 | 95 | 1010.5 |
| 20260510013039 | 52 | 0 | 0.0 | 1.7 | 0.00 | 0.30 | 0.30 | 95 | 1010.5 |
| 20260510012525 | 52 | 0 | 0.0 | 1.7 | 0.00 | 0.30 | 0.30 | 95 | 1010.4 |
| 20260510012028 | 52 | 0 | 0.0 | 1.7 | 0.00 | 0.30 | 0.30 | 95 | 1010.5 |
| 20260510011541 | 52 | 0 | 0.0 | 1.7 | 0.00 | 0.30 | 0.30 | 95 | 1010.4 |
| 20260510011024 | 52 | 96 | 0.9 | 1.7 | 0.00 | 0.30 | 0.30 | 95 | 1010.3 |
| 20260510010523 | 52 | 96 | 0.0 | 1.7 | 0.00 | 0.30 | 0.30 | 95 | 1010.4 |
| 20260510010045 | 52 | 0 | 0.0 | 1.7 | 0.00 | 0.30 | 0.30 | 95 | 1010.3 |
| 20260510005524 | 52 | 0 | 0.0 | 1.7 | 0.00 | 0.30 | 0.30 | 95 | 1010.1 |
| 20260510005027 | 52 | 96 | 0.0 | 1.7 | 0.00 | 0.30 | 0.30 | 95 | 1010.1 |
| 20260510004543 | 52 | 0 | 0.0 | 0.9 | 0.00 | 0.30 | 0.30 | 95 | 1009.9 |
| 20260510004025 | 52 | 0 | 0.0 | 1.7 | 0.00 | 0.30 | 0.30 | 95 | 1010.0 |
| 20260510003524 | 52 | 96 | 0.0 | 1.7 | 0.00 | 0.30 | 0.30 | 95 | 1010.0 |
| 20260510003043 | 52 | 0 | 0.0 | 1.7 | 0.00 | 0.30 | 0.30 | 95 | 1010.0 |
| 20260510002525 | 52 | 0 | 0.0 | 0.0 | 0.00 | 0.30 | 0.30 | 95 | 1009.9 |
| 20260510002024 | 52 | 0 | 0.0 | 0.0 | 0.00 | 0.30 | 0.30 | 95 | 1009.8 |
| 20260510001543 | 52 | 0 | 0.0 | 1.7 | 0.00 | 0.30 | 0.30 | 95 | 1009.8 |
| 20260510001025 | 52 | 0 | 0.0 | 1.7 | 0.00 | 0.30 | 0.30 | 95 | 1009.7 |
| 20260510000523 | 52 | 0 | 0.0 | 1.7 | 0.00 | 0.30 | 0.30 | 95 | 1009.7 |
| 20260510000057 | 52 | 0 | 0.0 | 1.7 | 0.00 | 0.30 | 0.30 | 95 | 1009.7 |
| 20260509235528 | 52 | 0 | 0.0 | 1.7 | 0.00 | 0.30 | 0.30 | 95 | 1009.7 |
| 20260509235024 | 52 | 9 | 0.0 | 1.7 | 0.00 | 0.30 | 0.30 | 95 | 1009.6 |
| 20260509234554 | 52 | 109 | 0.0 | 1.7 | 0.00 | 0.30 | 0.30 | 94 | 1009.7 |
| 20260509234025 | 52 | 19 | 0.0 | 1.7 | 0.00 | 0.30 | 0.30 | 94 | 1009.8 |
| 20260509233528 | 52 | 15 | 0.0 | 2.6 | 0.00 | 0.30 | 0.30 | 94 | 1009.8 |
| 20260509233047 | 52 | 11 | 0.9 | 2.6 | 0.01 | 0.30 | 0.30 | 94 | 1009.7 |
| 20260509232528 | 52 | 87 | 0.9 | 2.6 | 0.01 | 0.30 | 0.30 | 94 | 1009.6 |
| 20260509232025 | 52 | 129 | 0.9 | 2.6 | 0.01 | 0.30 | 0.30 | 94 | 1009.7 |
| 20260509231545 | 52 | 139 | 0.0 | 1.7 | 0.01 | 0.30 | 0.30 | 94 | 1009.6 |
| 20260509231025 | 52 | 0 | 0.9 | 2.6 | 0.01 | 0.30 | 0.30 | 94 | 1009.6 |
| 20260509230528 | 52 | 160 | 0.0 | 2.6 | 0.01 | 0.30 | 0.30 | 94 | 1009.7 |
| 20260509230040 | 52 | 160 | 0.0 | 2.6 | 0.01 | 0.30 | 0.30 | 94 | 1009.7 |
| 20260509225525 | 52 | 0 | 0.0 | 1.7 | 0.02 | 0.30 | 0.30 | 94 | 1009.8 |
| 20260509225024 | 52 | 82 | 0.0 | 1.7 | 0.02 | 0.30 | 0.30 | 94 | 1009.7 |
| 20260509224541 | 52 | 0 | 0.0 | 1.7 | 0.02 | 0.30 | 0.30 | 94 | 1009.8 |
| 20260509224026 | 52 | 28 | 0.0 | 1.7 | 0.02 | 0.30 | 0.30 | 94 | 1009.8 |
| 20260509223529 | 52 | 348 | 0.0 | 1.7 | 0.02 | 0.30 | 0.30 | 94 | 1009.8 |
| 20260509223036 | 52 | 119 | 0.0 | 1.7 | 0.02 | 0.29 | 0.29 | 94 | 1009.9 |
| 20260509222525 | 53 | 68 | 0.9 | 1.7 | 0.03 | 0.29 | 0.29 | 94 | 1010.0 |
| 20260509222024 | 53 | 157 | 0.9 | 1.7 | 0.04 | 0.29 | 0.29 | 94 | 1010.1 |
| 20260509221545 | 53 | 90 | 0.0 | 1.7 | 0.05 | 0.29 | 0.29 | 94 | 1010.1 |
| 20260509221024 | 53 | 101 | 0.9 | 1.7 | 0.07 | 0.29 | 0.29 | 94 | 1010.2 |
| 20260509220525 | 53 | 120 | 0.9 | 1.7 | 0.09 | 0.29 | 0.29 | 94 | 1010.1 |
| 20260509220041 | 53 | 147 | 0.9 | 1.7 | 0.10 | 0.29 | 0.29 | 94 | 1010.3 |
| 20260509215524 | 53 | 109 | 0.9 | 1.7 | 0.09 | 0.28 | 0.28 | 94 | 1010.3 |
| 20260509215027 | 53 | 0 | 0.0 | 1.7 | 0.10 | 0.28 | 0.28 | 93 | 1010.4 |
| 20260509214544 | 53 | 82 | 0.0 | 1.7 | 0.10 | 0.28 | 0.28 | 93 | 1010.3 |
| 20260509214023 | 53 | 0 | 0.0 | 1.7 | 0.11 | 0.28 | 0.28 | 93 | 1010.5 |
| 20260509213524 | 53 | 74 | 0.0 | 1.7 | 0.12 | 0.28 | 0.28 | 93 | 1010.3 |
| 20260509213043 | 53 | 0 | 0.0 | 1.7 | 0.11 | 0.27 | 0.27 | 92 | 1010.3 |
| 20260509212524 | 53 | 55 | 0.9 | 1.7 | 0.11 | 0.26 | 0.26 | 91 | 1010.3 |
| 20260509212024 | 53 | 73 | 0.0 | 1.7 | 0.09 | 0.24 | 0.24 | 91 | 1010.7 |
| 20260509211542 | 53 | 343 | 0.0 | 1.7 | 0.08 | 0.23 | 0.23 | 91 | 1010.6 |
| 20260509211024 | 53 | 327 | 0.0 | 1.7 | 0.06 | 0.21 | 0.21 | 92 | 1010.9 |
| 20260509210524 | 54 | 0 | 0.0 | 1.7 | 0.05 | 0.20 | 0.20 | 91 | 1010.6 |
| 20260509210046 | 54 | 0 | 0.0 | 1.7 | 0.05 | 0.19 | 0.19 | 91 | 1010.4 |
| 20260509205524 | 54 | 279 | 0.0 | 2.6 | 0.05 | 0.19 | 0.19 | 92 | 1010.5 |
| 20260509205025 | 54 | 282 | 0.9 | 2.6 | 0.04 | 0.18 | 0.18 | 92 | 1010.6 |
| 20260509204552 | 54 | 82 | 0.9 | 2.6 | 0.04 | 0.18 | 0.18 | 93 | 1010.3 |
| 20260509204025 | 54 | 0 | 0.0 | 1.7 | 0.04 | 0.17 | 0.17 | 93 | 1010.4 |
| 20260509203524 | 54 | 65 | 0.0 | 1.7 | 0.03 | 0.16 | 0.16 | 93 | 1010.4 |
| 20260509203044 | 54 | 65 | 0.0 | 1.7 | 0.04 | 0.16 | 0.16 | 93 | 1010.4 |
| 20260509202524 | 54 | 0 | 0.0 | 1.7 | 0.03 | 0.15 | 0.15 | 92 | 1010.5 |
| 20260509202026 | 54 | 65 | 0.9 | 1.7 | 0.04 | 0.15 | 0.15 | 92 | 1010.5 |
| 20260509201547 | 54 | 65 | 0.0 | 1.7 | 0.05 | 0.15 | 0.15 | 92 | 1010.6 |
| 20260509201024 | 54 | 65 | 0.0 | 1.7 | 0.09 | 0.15 | 0.15 | 92 | 1010.7 |
| 20260509200527 | 54 | 62 | 0.0 | 1.7 | 0.09 | 0.14 | 0.14 | 92 | 1010.8 |
| 20260509200057 | 54 | 0 | 0.0 | 1.7 | 0.10 | 0.14 | 0.14 | 91 | 1010.9 |
| 20260509195526 | 54 | 49 | 0.0 | 1.7 | 0.10 | 0.14 | 0.14 | 92 | 1010.8 |
| 20260509195025 | 54 | 0 | 0.9 | 1.7 | 0.11 | 0.14 | 0.14 | 91 | 1010.8 |
| 20260509194539 | 54 | 81 | 0.9 | 1.7 | 0.11 | 0.14 | 0.14 | 92 | 1010.9 |
| 20260509194022 | 54 | 0 | 0.0 | 1.7 | 0.10 | 0.13 | 0.13 | 91 | 1011.0 |
| 20260509193524 | 54 | 0 | 0.9 | 2.6 | 0.10 | 0.13 | 0.13 | 92 | 1011.1 |
| 20260509193045 | 54 | 292 | 0.9 | 2.6 | 0.09 | 0.12 | 0.12 | 92 | 1011.2 |
| 20260509192525 | 54 | 0 | 0.9 | 7.8 | 0.09 | 0.12 | 0.12 | 91 | 1011.1 |
| 20260509192026 | 55 | 308 | 0.9 | 7.8 | 0.08 | 0.11 | 0.11 | 91 | 1011.2 |
| 20260509191543 | 55 | 306 | 0.9 | 4.3 | 0.06 | 0.09 | 0.09 | 91 | 1011.0 |
| 20260509191023 | 55 | 300 | 0.0 | 1.7 | 0.03 | 0.06 | 0.06 | 91 | 1011.0 |
| 20260509190524 | 55 | 0 | 0.0 | 1.7 | 0.02 | 0.05 | 0.05 | 90 | 1010.9 |
| 20260509190043 | 55 | 0 | 0.0 | 1.7 | 0.01 | 0.04 | 0.04 | 90 | 1010.8 |
| 20260509185524 | 55 | 39 | 0.0 | 1.7 | 0.01 | 0.10 | 0.04 | 90 | 1010.7 |
| 20260509185023 | 55 | 0 | 0.0 | 1.7 | 0.00 | 0.09 | 0.03 | 90 | 1010.8 |
| 20260509184555 | 55 | 39 | 0.9 | 1.7 | 0.00 | 0.09 | 0.03 | 89 | 1010.7 |
| 20260509184025 | 55 | 5 | 0.0 | 1.7 | 0.00 | 0.09 | 0.03 | 89 | 1010.8 |
| 20260509183524 | 55 | 0 | 0.0 | 1.7 | 0.00 | 0.09 | 0.03 | 89 | 1010.7 |
| 20260509183039 | 55 | 0 | 0.0 | 1.7 | 0.00 | 0.09 | 0.03 | 88 | 1010.7 |
| 20260509182525 | 55 | 9 | 0.0 | 1.7 | 0.00 | 0.09 | 0.03 | 88 | 1010.6 |
| 20260509182024 | 55 | 0 | 0.0 | 1.7 | 0.00 | 0.09 | 0.03 | 88 | 1010.6 |
| 20260509181557 | 55 | 9 | 0.0 | 1.7 | 0.00 | 0.09 | 0.03 | 87 | 1010.6 |
| 20260509181025 | 55 | 0 | 0.0 | 1.7 | 0.00 | 0.09 | 0.03 | 88 | 1010.5 |
| 20260509180525 | 55 | 9 | 0.0 | 1.7 | 0.00 | 0.09 | 0.03 | 88 | 1010.6 |